Regional Weather Roundup
Issued by NWS

Home | Current Version | Previous Version | Graphics & Text | Print | Product List | Glossary On
Versions: 1 2 3 4 5 6 7 8 9 10 11 12 13 14 15 16 17 18 19 20 21 22 23 24 25 26 27 28 29 30 31 32 33 34 35 36 37 38 39 40 41 42 43 44 45 46 47 48 49 50
000
ASUS43 KMKX 281500
RWRWI

WISCONSIN REGIONAL WEATHER ROUNDUP
NATIONAL WEATHER SERVICE MILWAUKEE/SULLIVAN WI
1000 AM CDT THU JUL 28 2016

NOTE: "FAIR" INDICATES FEW OR NO CLOUDS BELOW 12,000 FEET WITH NO
SIGNIFICANT WEATHER AND/OR OBSTRUCTIONS TO VISIBILITY.

WIZ001-002-006>008-014>016-023>028-281600-
NORTHWEST WISCONSIN

CITY           SKY/WX    TMP DP  RH WIND       PRES   REMARKS
SUPERIOR ARPT  MOSUNNY   67  59  74 NE9       30.09R
ASHLAND        SUNNY     68  59  73 N14       30.06F
HAYWARD        CLOUDY    68  56  65 NE12      30.06S
SIREN          NOT AVBL
CUMBERLAND     CLOUDY    64  55  72 NE12      30.03S
RICE LAKE      CLOUDY    67  59  75 NE12G17   30.04R
CHETEK         CLOUDY    67  62  84 MISG      30.02S
LADYSMITH      CLOUDY    68  60  74 NE8       30.05S
EAU CLAIRE     NOT AVBL
MENOMONIE      CLOUDY    67  67  99 NE8       30.00R
NEW RICHMOND   CLOUDY    67  63  87 N8        30.03R
OSCEOLA        CLOUDY    66  66 100 N6        30.06S
$$

WIZ003>005-009-010-017-018-281600-
NORTH CENTRAL WISCONSIN

CITY           SKY/WX    TMP DP  RH WIND       PRES   REMARKS
MANITOWISH WTR SUNNY     66  55  68 NE8       30.06S
ARBOR VITAE    SUNNY     67  55  66 E7        30.05S
WOODRUFF       SUNNY     67  55  66 E7        30.05S
RHINELANDER    CLOUDY    64  56  75 E9        30.05S
EAGLE RIVER    SUNNY     67  54  62 E8        30.05S
LAND O LAKES   SUNNY     67  56  67 E8        30.07R
PHILLIPS       MOSUNNY   65  56  74 NE8       30.04S
TOMAHAWK       CLOUDY    63  57  82 NE7       30.04F
MEDFORD        RAIN      61  61 100 E7        30.02S
MERRILL        CLOUDY    62  62 100 E6        30.04S
$$

WIZ029-030-035-036-043>047-281600-
CENTRAL WISCONSIN

CITY           SKY/WX    TMP DP  RH WIND       PRES   REMARKS
WAUSAU         LGT RAIN  60  59  96 E8        30.01S FOG
MOSINEE        LGT RAIN  61  61 100 NE7       30.02S
MARSHFIELD     CLOUDY    62  59  90 E12       29.99S
STEVENS POINT  DRIZZLE   59  59  99 E13       30.00F
WAUPACA        CLOUDY    67  65  93 NE6       29.99F
WAUTOMA        CLOUDY    66  61  84 NE12      29.97F
WISC RAPIDS    CLOUDY    65  60  84 E12       29.99S
CAMP DOUGLAS   NOT AVBL
$$

WIZ011>013-019>022-031-037>040-048>050-281600-
NORTHEAST WISCONSIN

CITY           SKY/WX    TMP DP  RH WIND       PRES   REMARKS
ANTIGO         CLOUDY    60  59  95 CALM      30.04S
SHAWANO        CLOUDY    63  60  91 NE8       30.02S
OCONTO         CLOUDY   N/A N/A N/A NE3       30.01S
STURGEON BAY   LGT RAIN  65  62  90 NE9       30.01F
GREEN BAY      CLOUDY    68  66  93 NE15      29.99F
MANITOWOC      NOT AVBL
APPLETON       CLOUDY    64  57  77 E14G21    29.97F
CLINTONVILLE   CLOUDY    61  59  94 NE7       30.01S
OSHKOSH        CLOUDY    68  61  78 NE12      29.96F
$$

WIZ032>034-041-042-053>061-281600-
SOUTHWEST WISCONSIN

CITY           SKY/WX    TMP DP  RH WIND       PRES   REMARKS
LA CROSSE      CLOUDY    69  67  93 N7        29.92F FOG
SPARTA         CLOUDY    68  67  95 E7        29.94R
VIROQUA        CLOUDY    69  69 100 E6        29.94R
BOSCOBEL       CLOUDY    74  69  85 NE5       29.91F
PRAIRIE DU CHI CLOUDY    73  67  83 N5        29.91R
PLATTEVILLE    PTSUNNY   78  70  76 E5        29.92S HX  80
$$

WIZ056-057-062-063-064-067-068-281600-
SOUTH CENTRAL WISCONSIN

CITY           SKY/WX    TMP DP  RH WIND       PRES   REMARKS
REEDSBURG      CLOUDY    70  67  93 E8        29.93S
BARABOO/DELLS  CLOUDY    69  65  86 E10       29.95S
LONE ROCK      NOT AVBL
MINERAL POINT  PTSUNNY   75  72  88 NE7       29.93S
MADISON        CLOUDY    72  67  84 NE9       29.93S
MIDDLETON      CLOUDY    73  68  84 E8        29.94S
WATERTOWN      CLOUDY    72  71  97 E9        29.93F
MONROE         CLOUDY    73  70  88 E5        29.92S
JANESVILLE     MOSUNNY   79  70  73 E7        29.90F HX  81
$$

WIZ051-052-058>065-066-070>072-281600-
SOUTHEAST WISCONSIN

CITY           SKY/WX    TMP DP  RH WIND       PRES   REMARKS
MILWAUKEE      PTSUNNY   74  68  81 N9        29.93F
WAUKESHA       NOT AVBL
MILWAUKEE/TIMM CLOUDY    73  64  73 NE8       29.95S
RACINE         SUNNY     75  68  78 NE5       29.94F
BURLINGTON     CLOUDY    74  68  79 E7        29.93F
KENOSHA        PTSUNNY   78  69  73 E9        29.92F HX  80
FOND DU LAC    CLOUDY    70  63  78 E9        29.96F
SHEBOYGAN      CLOUDY    71  61  70 NE20      29.96F
WEST BEND      CLOUDY    68  63  83 NE9       29.95F
JUNEAU         CLOUDY    68  65  90 NE8       29.96F
$$

LSZ147-162-281600-
LAKE SUPERIOR

STATION/POSITION TIME  TEMP    WIND        PRES    WAVE
                       AIR SEA DIR/SP/G            HT/PER
                 (UTC) (F)     (DEG/KT/KT) (MB)    (FT/S)
W MID LAKE BUOY  1350   61 60   50/ 12/ 16 1017.8R   1/ 3
DEVILS ISLAND    1400   63      60/ 18/ 19 1018.5R
PORT WING        1340   62      20/ 10/ 11 1018.3S
SAXON HARBOR     1440   66      30/  7/  9 1017.6S
$$

LMZ867-665-643>646-281600-
LAKE MICHIGAN

STATION/POSITION TIME  TEMP    WIND        PRES    WAVE
                       AIR SEA DIR/SP/G            HT/PER
                 (UTC) (F)     (DEG/KT/KT) (MB)    (FT/S)
CHAMBERS ISLAND  1400   66      30/  8/ 11 1016.3
N MID LAKE BUOY  1350   65 69   60/ 12/ 16 1015.4F   1/ 4
NORTHPORT PIER   1400   66      50/  4/  5 1016.6R
SISTER BAY       1421   68      20/  4/  7   N/A
ALGOMA LAKESHORE 1443           50/ 13/ 17   N/A
KEWAUNEE LAKESHO 1400   62      30/  4/  8 1015.2R
SHEBOYGAN LAKESH 1400   59     350/ 16/ 17 1015.0R
PORT WASHINGTON  1400   71     350/  5/ 12 1014.9
ATWATER BUOY     1400   63 62  360/ 10/ 12 1015.5R
MILWAUKEE LAKESH 1410   68     360/ 10/ 13   N/A
S MID LAKE BUOY  1350   74 74  100/  6/  6 1012.7R   1
KENOSHA   LAKESH 1400   67      20/  6/  7 1013.2F
$$

TC  - TEMPERATURE IN CELSIUS
VSB - VISIBILITY IN STATUTE MILES
WCI - WIND CHILL INDEX
HX  - HEAT INDEX





USA.gov is the U.S. government's official web portal to all federal, state and local government web resources and services.